STARLINK-4324, 53085

Orbit data source: Space-Track

STARLINK-4324, 53085 is a payload satellite owned by SpaceX/Seattle (US) in SSO that was launched on Mon, 11 Jul 2022 UTC via an FALCON 9 launch vehicle from the Air Force Western Test Range (AFWTR). Payload-class satellites include a variety of spacecraft equipped with specific instruments for various scientific and technological missions. These include communications satellites like Starlink; space stations such as the ISS; scientific satellites like the Hubble; Earth observation satellites from companies like Planet Labs, Umbra, and HawkEye 360; GPS; miniature CubeSats for education and research; and military/defense satellites.

Loading next visibility...
Identifier
53085, 2022-077AU
Orbit
SSO
Country
Flag of USUS
Related business
Manufacturer
SpaceX/Seattle
Mission
Operational Commercial Communications
Bus & Motor
STARLINK, Unknown motor
Mass
297 kg wet, ~275 kg dry
Launch date (UTC)
2022-07-11 (3 years ago)
Launch vehicle
FALCON 9
Launch site
Air Force Western Test Range (AFWTR)
Object type
Payload
Rocket body
Debris
Shape & HBR
Box + 1 Pan, 10.1 m
Radar Cross Section
13.562 m², Large (>1 m²)

Expand to show TLE details & history
Last TLE update: 1 day ago

TLE from 1 day ago
0 STARLINK-4324
1 53085U 22077AU  25348.76475430  .00000191  00000-0  17462-4 0  9992
2 53085  97.6034 167.4565 0001790  78.9068 281.2360 15.05647941188204
Epoch: 2025-12-14T18:21Z
TLE epoch observation values (Epoch: 2025-12-14T18:21:14.771Z)
Latitude
-0.00003°
Longitude
168.47197°
Altitude
552.341 km
Speed
7.586 km/s
True Right ascension
11h 09m 49s
True Declination
0° 00' 00"
Sunlit
Object was in daylight at epoch
Visualization orbit readout
Latitude
Unknown
Longitude
Unknown
Altitude
Unknown
Speed
Unknown
Apparent Right ascension
Unknown
Apparent Declination
Unknown
Sunlit
N/A
Visualization observer readout
Local Sidereal Time
17:25:42
Azimuth
Unknown
Elevation
Unknown
Doppler factor
Unknown
Orbital elements
Apogee altitude
547.75 km
Perigee altitude
545.271 km
Semi-major axis
6,924.648 km
Eccentricity
0.00018
Inclination
97.6034°
RAAN
167.4565°
Arg. of periapsis
78.9068°
True anomaly
281.21588°
Mean anomaly
281.236°
Eccentric anomaly
281.22594°
Mean motion
3.76658 °/min
Orbital period
95.58 mins
BSTAR
0.000017462
Loading maneuver chart data...
Computing Atmospheric mass density...
Loading historical data...
Loading historical data...
Loading historical data...
Loading historical data...
Loading historical data...
Loading historical data...
Loading historical data...

Documentation

Showing up to 5 results
|